{"data":{"norad_id":57534,"intl_designator":"2023-115P","name":"STARLINK-30264","alt_names":[],"object_type":"PAYLOAD","status":"ACTIVE","operator":null,"country":"US","launch_date":"2023-08-08","launch_site_code":"AFWTR","launch_vehicle":null,"mission":null,"orbit_class":"UNKNOWN","rcs_meters":null,"size_class":null,"mass_kg":null,"dimensions":null,"purposes":["comms"],"wikipedia_slug":null,"has_3d_model":false,"image_url":null,"decayed_at":null,"tle_current":{"epoch":"2026-05-24T23:24:36.756288Z","epoch_age_seconds":81139,"freshness":"FRESH","line1":"1 57534U 23115P   26144.97542542  .00001378  00000+0  59594-4 0  9995","line2":"2 57534  43.0023 138.0716 0001497 266.6555  93.4126 15.27580838157027","mean_motion":15.27580838,"eccentricity":0.0001497,"inclination_deg":43.0023,"raan_deg":138.0716,"arg_perigee_deg":266.6555,"mean_anomaly_deg":93.4126,"bstar":5.9594e-5,"rev_number":15702,"period_min":94.266697000817,"perigee_km":482.01946758439,"apogee_km":484.07370595027,"semimajor_km":6861.1835867673,"source":"CELESTRAK","updated_at":"2026-05-25T13:38:18.334756Z"}}}